Weather Roundup
Issued by NWS Chicago, IL

Home | Current Version | Previous Version | Text Only | Print | Product List | Glossary Off
Versions: 1 2 3 4 5 6 7 8 9 10 11 12 13 14 15 16 17 18 19 20 21 22 23 24 25 26 27 28 29 30 31 32 33 34 35 36 37 38 39 40 41 42 43 44 45 46 47 48 49 50

269
NZUS59 KLOT 240908
HRRLOT

CHICAGO AREA WEATHER ROUNDUP
NATIONAL WEATHER SERVICE CHICAGO/ROMEOVILLE IL
400 AM CDT SUN JUL 24 2016

NOTE: "FAIR" INDICATES FEW OR NO CLOUDS BELOW 12,000 FEET WITH NO
SIGNIFICANT WEATHER AND/OR OBSTRUCTIONS TO VISIBILITY.

* THESE STATIONS ARE NOT UNDER NWS QUALITY CONTROL. THEY ALSO MAY NOT
  REPORT WEATHER SUCH AS PRECIPITATION OR FOG.

ILZ005-006-012>014-019>023-241000-
NORTHEAST ILLINOIS

CITY           SKY/WX    TMP DP  RH WIND       PRES   REMARKS
OHARE          CLOUDY    71  70  96 S9        29.90F
MIDWAY         MOCLDY    73  70  90 S6        29.90F
AURORA         CLOUDY    71  69  93 S9        29.91F
LANSING*       CLOUDY    70  69  95 S5        29.93F
JOLIET*        PTCLDY    72  71  96 S5        29.92F
WAUKEGAN       CLOUDY    72  69  90 S10       29.88F
DUPAGE AIRPORT PTCLDY    71  68  90 S9        29.91F
WHEELING       CLOUDY    72  70  93 S7        29.91F
MORRIS*        MOCLDY    71  70  96 CALM      29.92S
LEWIS AIRPORT* PTCLDY    70  68  92 S8        29.92F
NORTHERLY ISL    N/A     72  68  87 SW7         N/A
$$

WIZ051-052-058>065-066-070>072-241000-
SOUTHEAST WISCONSIN

CITY           SKY/WX    TMP DP  RH WIND       PRES   REMARKS
MILWAUKEE      CLOUDY    73  69  87 S12       29.86F
KENOSHA*       PTCLDY    72  69  90 S7        29.89F
RACINE*        PTCLDY    73  68  84 S8        29.89F
BURLINGTON     PTCLDY    70  69  96 S3        29.88F
WAUKESHA       PTCLDY    68  66  94 S7        29.88F
$$

INZ001>003-010>013-019-020-241000-
NORTHWEST INDIANA

CITY           SKY/WX    TMP DP  RH WIND       PRES   REMARKS
GARY*          CLOUDY    72  72 100 S3        29.92F
MICHIGAN CITY* NOT AVBL
RENSSELAER*    NOT AVBL
VALPARAISO     CLOUDY    71  69  93 S3        29.94S
$$

LMZ740>746-241000-
SOUTHERN LAKE MICHIGAN

STATION/POSITION TIME  SKY/WX   TEMP WIND        PRES    VSBY
                                AIR  DIR/SP/G
                 (UTC)          (F)  (DEG/KT/KT) (MB)    (MI)
HARRISON CRIB    0800            74  190/ 14/ 15   N/A
BURNHAM HARBOR   0900            72  210/  4/  9   N/A
CALUMET HARBOR   0800            71  200/  6/  8 1013.0F
BURNS HARBOR     0803            74  180/  6/ 11 1013.9F
MICHIGAN CITY    0800            71  110/  7/  9   N/A
$$

ABBREVIATIONS USED IN REMARKS
   TC - TEMPERATURE IN CELSIUS
  WCI - WIND CHILL INDEX
   HX - HEAT INDEX
  VSB - VISIBILITY
$$




USA.gov is the U.S. government's official web portal to all federal, state and local government web resources and services.